Regional Weather Roundup
Issued by NWS Sioux Falls, SD

Home | Current Version | Previous Version | Text Only | Print | Product List | Glossary On
Versions: 1 2 3 4 5 6 7 8 9 10 11 12 13 14 15 16 17 18 19 20 21 22 23 24 25 26 27 28 29 30 31 32 33 34 35 36 37 38 39 40 41 42 43 44 45 46 47 48 49 50
000
ASUS43 KFSD 041702
RWRFSD

WEATHER ROUNDUP FOR SE SOUTH DAKOTA/SW MINNESOTA/NW IOWA
NATIONAL WEATHER SERVICE SIOUX FALLS SD
1200 PM CDT TUE AUG 04 2015

NOTE: "FAIR" INDICATES FEW OR NO CLOUDS BELOW 12,000 FEET WITH NO
SIGNIFICANT WEATHER AND OR OBSTRUCTIONS TO VISIBILITY.


SDZ038>040-050-052>070-041800-
SOUTHEAST SOUTH DAKOTA

CITY           SKY/WX    TMP DP  RH WIND       PRES   REMARKS
BROOKINGS      PTSUNNY   72  55  56 SE9       30.02F
CHAMBERLAIN    CLOUDY    73  65  76 SE9       29.97F
HURON          PTSUNNY   77  63  61 SE5       29.96R
MADISON        FAIR      72  63  73 SE13      29.99F
MITCHELL       CLOUDY    76  66  71 SE8       29.97R
SIOUX FALLS    CLOUDY    75  61  61 E15       29.98F
WINNER         FAIR      74  62  66 E10       29.95F
YANKTON        CLOUDY    73  64  73 SE13      29.95S
$$

MNZ071-072-080-081-089-090-097-098-041800-
SOUTHWEST MINNESOTA

CITY           SKY/WX    TMP DP  RH WIND       PRES   REMARKS
FAIRMONT       PTSUNNY   73  48  40 SE6       30.04S
JACKSON        PTSUNNY   75  50  41 E6        30.04F
LUVERNE        CLOUDY    73  57  56 SE8       30.02S HAZE
MARSHALL       PTSUNNY   77  50  38 S6        30.03F
MONTEVIDEO     MOSUNNY   81  55  41 W5        30.03S
PIPESTONE      CLOUDY    72  55  56 S7        30.02S
REDWOOD FALLS  PTSUNNY   77  48  35 SW6       30.01F
TRACY          PTSUNNY   75  55  50 S6        30.02F
WINDOM         PTSUNNY   75  46  35 CALM      30.03F
WORTHINGTON    CLOUDY    72  55  56 E8        30.04S
$$

IAZ001>003-012>014-020>022-031-032-NEZ013-014-SDZ071-041800-
NORTHWEST IOWA

CITY           SKY/WX    TMP DP  RH WIND       PRES   REMARKS
DENISON        CLOUDY    70  63  78 S13G18    30.04F
ESTHERVILLE      N/A     74  50  42 E7        30.04S
LE MARS        CLOUDY    73  64  73 SE9       30.02F
SIOUX CITY     CLOUDY    72  63  73 SE12      30.00F
SPENCER        CLOUDY    76  53  44 SE12      30.04S
STORM LAKE     CLOUDY    72  59  64 SE9       30.07R
$$

ABBREVIATIONS USED IN REMARKS
   TC - TEMPERATURE IN CELSIUS
  WCI - WIND CHILL INDEX
   HX - HEAT INDEX
  VSB - VISIBILITY



USA.gov is the U.S. government's official web portal to all federal, state and local government web resources and services.